Weather History for Ketchikan, AK

Change the Weather History Date:

Saturday, November 5, 2011

  Actual Average Record
Temperature  
Mean Temperature 40 °F -  
Max Temperature 43 °F 47 °F 64 °F (1949)
Min Temperature 37 °F 37 °F 19 °F (2003)
Degree Days  
Heating Degree Days 25    
Moisture  
Dew Point 37 °F    
Average Humidity 91    
Maximum Humidity 93    
Minimum Humidity 85    
Precipitation  
Precipitation 0.68 in - - ()
Sea Level Pressure  
Sea Level Pressure 29.68 in    
Wind  
Wind Speed 8 mph (SSE)    
Max Wind Speed 16 mph    
Max Gust Speed 24 mph    
Visibility 10 miles    
Events Rain    
Averages and records for this station are not official NWS values.
T = Trace of Precipitation, MM = Missing Value Source: NWS Daily Summary

Daily Weather History Graph

Daily Weather History Graph

Search for Another Location

Airport:

Trip Planner

Search our weather history database for the weather conditions in past years. The results will help you decide how hot, cold, wet, or windy it might be!

Date:

Astronomy

Nov. 05, 2011 Rise Set
Actual Time 7:59 AM AKDT 5:00 PM AKDT
Civil Twilight 7:20 AM AKDT 5:39 PM AKDT
Nautical Twilight 6:36 AM AKDT 6:23 PM AKDT
Astronomical Twilight 5:53 AM AKDT 7:05 PM AKDT
Moon 2:59 PM AKDT (11/5) 2:32 AM AKDT (11/5)
Length of Visible Light 10h 19m
Length of Day
9h 00m
Waxing Gibbous, 79% of the Moon is Illuminated
Nov 5
Waxing Gibbous
Nov 10
Full
Nov 18
Last Quarter
Nov 24
New
Dec 2
First Quarter

Hourly Weather History & Observations

Time (AKDT) Temp. Windchill Dew Point Humidity Pressure Visibility Wind Dir Wind Speed Gust Speed Precip Events Conditions
12:53 AM 39.9 °F 31.4 °F 37.0 °F 89% 29.49 in 6.0 mi SE 16.1 mph 24.2 mph 0.16 in Rain Rain
1:53 AM 39.0 °F 31.4 °F 36.0 °F 89% 29.50 in 9.0 mi SE 12.7 mph 19.6 mph 0.09 in Rain Light Rain
2:53 AM 39.0 °F 32.8 °F 36.0 °F 89% 29.51 in 5.0 mi SSE 9.2 mph - 0.10 in Rain Light Rain
3:53 AM 37.9 °F 32.7 °F 36.0 °F 93% 29.52 in 6.0 mi South 6.9 mph - 0.11 in Rain Light Rain
4:53 AM 37.9 °F 33.5 °F 36.0 °F 93% 29.53 in 10.0 mi SSE 5.8 mph - 0.06 in Rain Light Rain
5:53 AM 39.0 °F 34.0 °F 36.0 °F 89% 29.54 in 10.0 mi SSE 6.9 mph - 0.00 in Rain Light Rain
6:53 AM 39.0 °F 34.0 °F 37.0 °F 93% 29.55 in 10.0 mi SSE 6.9 mph - 0.02 in Rain Light Rain
7:53 AM 39.0 °F 34.8 °F 37.0 °F 93% 29.57 in 10.0 mi SSE 5.8 mph - 0.01 in Rain Light Rain
8:53 AM 39.9 °F 35.1 °F 37.9 °F 93% 29.60 in 10.0 mi SSE 6.9 mph - 0.04 in Rain Light Rain
9:53 AM 39.9 °F 36.7 °F 37.9 °F 93% 29.62 in 10.0 mi SSE 4.6 mph - 0.06 in Rain Light Rain
10:53 AM 39.9 °F 33.9 °F 37.0 °F 89% 29.64 in 10.0 mi SSE 9.2 mph - 0.02 in Rain Light Rain
11:53 AM 41.0 °F 39.0 °F 37.9 °F 89% 29.66 in 10.0 mi SSE 3.5 mph - 0.01 in Rain Light Rain
12:53 PM 42.1 °F 38.4 °F 37.9 °F 85% 29.67 in 10.0 mi SSE 5.8 mph - 0.00 in   Overcast
1:53 PM 43.0 °F 39.5 °F 39.0 °F 86% 29.69 in 10.0 mi SSE 5.8 mph - N/A   Overcast
2:53 PM 43.0 °F 38.8 °F 39.0 °F 86% 29.70 in 10.0 mi SSE 6.9 mph - N/A   Overcast
3:53 PM 42.1 °F 39.2 °F 39.0 °F 89% 29.72 in 10.0 mi SSE 4.6 mph - N/A   Overcast
4:53 PM 41.0 °F 39.0 °F 39.0 °F 93% 29.74 in 10.0 mi Variable 3.5 mph - N/A   Overcast
5:53 PM 39.9 °F - 37.9 °F 93% 29.76 in 10.0 mi Calm Calm - N/A   Overcast
6:53 PM 41.0 °F - 37.9 °F 89% 29.78 in 10.0 mi Calm Calm - N/A   Overcast
7:53 PM 39.9 °F - 37.0 °F 89% 29.79 in 10.0 mi Calm Calm - N/A   Overcast
8:53 PM 39.9 °F - 37.9 °F 93% 29.81 in 10.0 mi Calm Calm - N/A   Overcast
9:53 PM 39.9 °F - 37.9 °F 93% 29.84 in 10.0 mi Calm Calm - N/A   Overcast
10:53 PM 39.9 °F - 37.0 °F 89% 29.86 in 10.0 mi Calm Calm - N/A   Overcast
11:05 PM 39.2 °F - 37.4 °F 93% 29.86 in 10.0 mi Calm Calm - N/A   Overcast
11:28 PM 39.2 °F 37.0 °F 37.4 °F 93% 29.86 in 10.0 mi SSE 3.5 mph - N/A   Overcast
11:53 PM 39.9 °F 37.8 °F 37.9 °F 93% 29.86 in 10.0 mi SSE 3.5 mph - N/A   Overcast